| time (UTC) | temp F | wind direction | speed knots | gust knots | rain 1hr in | rain 24hr in | rain mn in | humidity % | barometer mb |
| 20260509103027 | 57 | 0 | 0.0 | 0.0 | 0.00 | 0.00 | 0.00 | 96 | 1012.2 |
| 20260509101530 | 57 | 0 | 0.0 | 0.0 | 0.00 | 0.00 | 0.00 | 96 | 1012.4 |
| 20260509100029 | 57 | 0 | 0.0 | 0.0 | 0.00 | 0.00 | 0.00 | 96 | 1012.5 |
| 20260509094534 | 57 | 0 | 0.0 | 0.9 | 0.00 | 0.00 | 0.00 | 96 | 1012.3 |
| 20260509093029 | 57 | 0 | 0.0 | 0.0 | 0.00 | 0.00 | 0.00 | 96 | 1012.3 |
| 20260509091530 | 57 | 0 | 0.0 | 0.0 | 0.00 | 0.00 | 0.00 | 96 | 1012.1 |
| 20260509090036 | 57 | 0 | 0.0 | 0.0 | 0.00 | 0.00 | 0.00 | 95 | 1012.0 |
| 20260509084529 | 57 | 0 | 0.0 | 0.0 | 0.00 | 0.00 | 0.00 | 96 | 1011.8 |
| 20260509083030 | 57 | 0 | 0.0 | 0.0 | 0.00 | 0.00 | 0.00 | 96 | 1011.7 |
| 20260509081531 | 57 | 0 | 0.0 | 0.0 | 0.00 | 0.00 | 0.00 | 95 | 1011.8 |
| 20260509080029 | 57 | 0 | 0.0 | 0.0 | 0.00 | 0.00 | 0.00 | 96 | 1011.6 |
| 20260509074528 | 57 | 0 | 0.0 | 0.0 | 0.00 | 0.00 | 0.00 | 95 | 1011.4 |
| 20260509073035 | 57 | 0 | 0.0 | 0.0 | 0.00 | 0.00 | 0.00 | 95 | 1011.5 |
| 20260509071528 | 57 | 0 | 0.0 | 0.0 | 0.00 | 0.00 | 0.00 | 95 | 1011.9 |
| 20260509070028 | 58 | 0 | 0.0 | 0.0 | 0.00 | 0.00 | 0.00 | 95 | 1012.2 |
| 20260509064529 | 58 | 0 | 0.0 | 0.9 | 0.00 | 0.00 | 0.00 | 95 | 1012.2 |
| 20260509063036 | 58 | 0 | 0.0 | 0.0 | 0.00 | 0.00 | 0.00 | 95 | 1012.7 |
| 20260509061529 | 58 | 0 | 0.0 | 0.0 | 0.00 | 0.00 | 0.00 | 95 | 1012.8 |
| 20260509060029 | 58 | 0 | 0.0 | 0.0 | 0.00 | 0.00 | 0.00 | 94 | 1012.8 |
| 20260509054527 | 58 | 0 | 0.0 | 0.0 | 0.00 | 0.00 | 0.00 | 94 | 1012.8 |
| 20260509053047 | 59 | 0 | 0.0 | 0.9 | 0.00 | 0.00 | 0.00 | 94 | 1013.1 |
| 20260509051529 | 59 | 0 | 0.0 | 0.0 | 0.00 | 0.00 | 0.00 | 94 | 1013.2 |
| 20260509050028 | 59 | 0 | 0.0 | 0.0 | 0.00 | 0.00 | 0.00 | 94 | 1013.5 |
| 20260509044528 | 59 | 0 | 0.0 | 0.0 | 0.00 | 0.00 | 0.00 | 93 | 1013.6 |
| 20260509043040 | 59 | 0 | 0.0 | 0.0 | 0.00 | 0.00 | 0.00 | 93 | 1013.5 |
| 20260509041528 | 59 | 0 | 0.0 | 0.0 | 0.00 | 0.00 | 0.00 | 93 | 1013.6 |
| 20260509040034 | 59 | 0 | 0.0 | 0.0 | 0.00 | 0.00 | 0.00 | 93 | 1013.7 |
| 20260509034528 | 60 | 0 | 0.0 | 0.0 | 0.00 | 0.00 | 0.00 | 92 | 1013.6 |
| 20260509033027 | 60 | 0 | 0.0 | 0.0 | 0.00 | 0.00 | 0.00 | 92 | 1013.7 |
| 20260509031531 | 60 | 0 | 0.0 | 0.0 | 0.00 | 0.00 | 0.00 | 92 | 1013.9 |
| 20260509030028 | 60 | 0 | 0.0 | 0.0 | 0.00 | 0.00 | 0.00 | 91 | 1013.8 |
| 20260509024527 | 61 | 0 | 0.0 | 0.0 | 0.00 | 0.00 | 0.00 | 91 | 1013.9 |
| 20260509023028 | 61 | 0 | 0.0 | 0.0 | 0.00 | 0.00 | 0.00 | 90 | 1014.1 |
| 20260509021530 | 61 | 0 | 0.0 | 0.0 | 0.00 | 0.00 | 0.00 | 90 | 1014.1 |
| 20260509020026 | 61 | 0 | 0.0 | 0.0 | 0.00 | 0.00 | 0.00 | 89 | 1014.2 |
| 20260509014528 | 61 | 0 | 0.0 | 0.0 | 0.00 | 0.00 | 0.00 | 88 | 1014.2 |
| 20260509013031 | 62 | 0 | 0.0 | 0.0 | 0.00 | 0.00 | 0.00 | 88 | 1014.1 |
| 20260509011530 | 62 | 0 | 0.0 | 0.0 | 0.00 | 0.00 | 0.00 | 87 | 1014.2 |
| 20260509010034 | 62 | 0 | 0.0 | 0.0 | 0.00 | 0.00 | 0.00 | 86 | 1014.3 |
| 20260509004530 | 63 | 0 | 0.0 | 0.9 | 0.00 | 0.00 | 0.00 | 85 | 1014.3 |
| 20260509003034 | 63 | 0 | 0.0 | 0.0 | 0.00 | 0.00 | 0.00 | 84 | 1014.3 |
| 20260509001531 | 64 | 0 | 0.0 | 0.9 | 0.00 | 0.00 | 0.00 | 84 | 1014.3 |
| 20260509000030 | 64 | 0 | 0.0 | 0.0 | 0.00 | 0.00 | 0.00 | 81 | 1014.2 |
| 20260508234530 | 65 | 0 | 0.0 | 0.0 | 0.00 | 0.00 | 0.00 | 80 | 1014.2 |
| 20260508233034 | 65 | 0 | 0.0 | 1.7 | 0.00 | 0.00 | 0.00 | 79 | 1014.2 |
| 20260508231530 | 65 | 0 | 0.0 | 0.0 | 0.00 | 0.00 | 0.00 | 77 | 1013.9 |
| 20260508230028 | 66 | 0 | 0.0 | 0.0 | 0.00 | 0.00 | 0.00 | 77 | 1013.7 |
| 20260508224528 | 66 | 0 | 0.0 | 0.0 | 0.00 | 0.00 | 0.00 | 76 | 1013.7 |
| 20260508223032 | 67 | 0 | 0.0 | 0.0 | 0.00 | 0.00 | 0.00 | 74 | 1013.9 |
| 20260508221532 | 67 | 0 | 0.0 | 0.0 | 0.00 | 0.00 | 0.00 | 73 | 1013.9 |
| 20260508220027 | 67 | 0 | 0.0 | 0.0 | 0.00 | 0.00 | 0.00 | 72 | 1013.8 |
| 20260508214532 | 67 | 0 | 0.0 | 0.9 | 0.00 | 0.00 | 0.00 | 71 | 1013.8 |
| 20260508213028 | 68 | 0 | 0.0 | 0.9 | 0.00 | 0.00 | 0.00 | 70 | 1014.0 |
| 20260508211531 | 68 | 0 | 0.0 | 1.7 | 0.00 | 0.00 | 0.00 | 70 | 1014.2 |
| 20260508210034 | 69 | 0 | 0.0 | 0.0 | 0.00 | 0.00 | 0.00 | 69 | 1014.1 |
| 20260508204534 | 69 | 0 | 0.0 | 0.9 | 0.00 | 0.00 | 0.00 | 67 | 1014.0 |
| 20260508203034 | 69 | 0 | 0.0 | 0.9 | 0.00 | 0.00 | 0.00 | 66 | 1013.9 |
| 20260508201531 | 70 | 0 | 0.0 | 3.5 | 0.00 | 0.00 | 0.00 | 63 | 1014.3 |
| 20260508200033 | 70 | 0 | 0.0 | 2.6 | 0.00 | 0.00 | 0.00 | 64 | 1014.1 |
| 20260508194531 | 70 | 0 | 0.0 | 0.9 | 0.00 | 0.00 | 0.00 | 63 | 1014.1 |
| 20260508193030 | 71 | 0 | 0.0 | 0.9 | 0.00 | 0.00 | 0.00 | 64 | 1014.4 |
| 20260508191532 | 71 | 0 | 0.0 | 0.9 | 0.00 | 0.00 | 0.00 | 63 | 1014.8 |
| 20260508190029 | 71 | 0 | 0.0 | 1.7 | 0.00 | 0.00 | 0.00 | 61 | 1014.7 |
| 20260508184528 | 71 | 65 | 0.9 | 3.5 | 0.00 | 0.00 | 0.00 | 62 | 1015.0 |
| 20260508183030 | 71 | 178 | 0.0 | 3.5 | 0.00 | 0.00 | 0.00 | 63 | 1015.2 |
| 20260508181540 | 70 | 0 | 0.0 | 2.6 | 0.00 | 0.00 | 0.00 | 64 | 1015.5 |
| 20260508180028 | 70 | 0 | 0.0 | 4.3 | 0.00 | 0.00 | 0.00 | 64 | 1015.5 |
| 20260508174531 | 70 | 0 | 0.9 | 4.3 | 0.00 | 0.00 | 0.00 | 67 | 1015.7 |
| 20260508173029 | 69 | 0 | 0.0 | 1.7 | 0.00 | 0.00 | 0.00 | 64 | 1015.8 |
| 20260508171530 | 69 | 32 | 0.9 | 3.5 | 0.00 | 0.00 | 0.00 | 65 | 1016.1 |
| 20260508170028 | 69 | 0 | 0.0 | 1.7 | 0.00 | 0.00 | 0.00 | 67 | 1016.1 |
| 20260508164527 | 69 | 0 | 0.0 | 1.7 | 0.00 | 0.00 | 0.00 | 66 | 1016.4 |
| 20260508163029 | 69 | 75 | 0.0 | 2.6 | 0.00 | 0.00 | 0.00 | 66 | 1016.8 |
| 20260508161544 | 68 | 0 | 0.0 | 1.7 | 0.00 | 0.00 | 0.00 | 68 | 1017.2 |
| 20260508160028 | 68 | 0 | 0.0 | 1.7 | 0.00 | 0.00 | 0.00 | 69 | 1017.1 |
| 20260508154529 | 67 | 201 | 0.0 | 2.6 | 0.00 | 0.24 | 0.00 | 72 | 1017.3 |
| 20260508153049 | 66 | 82 | 0.0 | 1.7 | 0.00 | 0.24 | 0.00 | 74 | 1017.5 |
| 20260508151527 | 65 | 0 | 0.0 | 1.7 | 0.00 | 0.24 | 0.00 | 76 | 1017.4 |
| 20260508150028 | 64 | 79 | 0.0 | 2.6 | 0.00 | 0.24 | 0.00 | 77 | 1017.5 |
| 20260508144527 | 63 | 148 | 0.0 | 2.6 | 0.00 | 0.28 | 0.00 | 78 | 1017.5 |
| 20260508143045 | 63 | 0 | 0.0 | 2.6 | 0.00 | 0.28 | 0.00 | 79 | 1017.8 |
| 20260508141530 | 62 | 0 | 0.0 | 1.7 | 0.00 | 0.28 | 0.00 | 79 | 1017.6 |
| 20260508140030 | 61 | 0 | 0.0 | 3.5 | 0.00 | 0.28 | 0.00 | 81 | 1017.7 |
| 20260508134534 | 60 | 23 | 0.9 | 3.5 | 0.00 | 0.86 | 0.00 | 81 | 1017.9 |
| 20260508133029 | 60 | 32 | 0.9 | 3.5 | 0.00 | 0.86 | 0.00 | 83 | 1017.8 |
| 20260508131529 | 59 | 0 | 0.0 | 1.7 | 0.00 | 0.86 | 0.00 | 86 | 1017.7 |
| 20260508130027 | 58 | 0 | 0.0 | 1.7 | 0.00 | 0.86 | 0.00 | 87 | 1017.5 |
| 20260508124529 | 58 | 0 | 0.0 | 1.7 | 0.00 | 2.05 | 0.00 | 89 | 1017.5 |
| 20260508123028 | 57 | 0 | 0.0 | 2.6 | 0.00 | 2.05 | 0.00 | 89 | 1017.5 |
| 20260508121527 | 56 | 39 | 0.9 | 2.6 | 0.00 | 2.05 | 0.00 | 90 | 1017.2 |
| 20260508120028 | 55 | 0 | 0.0 | 0.0 | 0.00 | 2.05 | 0.00 | 93 | 1017.2 |
| 20260508114528 | 55 | 0 | 0.0 | 0.0 | 0.00 | 2.93 | 0.00 | 93 | 1016.7 |
| 20260508113028 | 55 | 0 | 0.0 | 0.0 | 0.00 | 2.93 | 0.00 | 94 | 1016.2 |
| 20260508111528 | 54 | 0 | 0.0 | 0.0 | 0.00 | 2.93 | 0.00 | 94 | 1015.9 |
| 20260508110033 | 54 | 0 | 0.0 | 0.0 | 0.00 | 2.93 | 0.00 | 95 | 1015.8 |
| 20260508104526 | 54 | 0 | 0.0 | 0.0 | 0.00 | 2.94 | 0.00 | 95 | 1015.1 |